Location: Blanot
(47.1713°N, 4.2340°E)
Time: 10:57:21
(UTC+00:00)

Cosmos 841 Rocket - Pass Details

Date: 14 July 2020
Orbit: 747 x 772 km, 74.0° (Epoch: 05 August)

Event Time Altitude Azimuth Distance (km) Brightness Sun altitude
Rises 02:49:42 0° 340° (NNW) 3,208 7.1 -10.1°
Reaches altitude 10° 02:52:06 10° 344° (NNW) 2,282 6.4 -9.8°
Maximum altitude 02:57:14 62° 65° (ENE) 850 4.1 -9.2°
Drops below altitude 10° 03:02:21 10° 146° (SE) 2,281 5.8 -8.6°
Sets 03:04:45 0° 150° (SSE) 3,206 6.6 -8.3°
